Flag for Netherlands Weather past 2 weeks in Oss, Netherlands

Now
66 °F

Fog.


Feels Like: 66 °F
Forecast: 59 / 78 °F
Wind: 3 mph from Northwest

Location: Volkel

Current Time: Jul 26, 2014 at 9:19:45 AM

Latest Report: Jul 26, 2014 at 8:55 AM


Visibility: 3 mi

Pressure: 29.92 "Hg

Humidity: 94%

Dew point: 64 °F

Location of OssLocation

Historic Weather in Oss — Graph

°F

Oss temperature yesterday

Maximum temperature yesterday: 70 °F (at 11:59 AM)
Minimum temperature yesterday: 61 °F (at 9:55 PM)
Average temperature yesterday: 65 °F

Past Weeks' High & Low Weather Summary

 TemperatureHumidityPressure
High91 °F (Jul 19, 1:25 PM)100% (Jul 11, 7:25 AM)30.18 "Hg (Jul 11, 7:25 AM)
Low50 °F (Jul 15, 5:25 AM)31% (Jul 19, 2:55 PM)29.71 "Hg (Jul 13, 4:55 PM)
Average69 °F79%29.96 "Hg
* Reported Jul 11 7:25 AM — Jul 26 7:55 AM, Oss, Weather by CustomWeather, © 2014

Note: Actual official high and low records may vary slightly from our data, if they occured in-between our weather recording intervals... More about our weather records

Advertising

Oss weather history for previous 24 hours

 ConditionsComfort  
Time TempWeatherWind HumidityBarometerVisibility
7:55 AM
Jul 26
63 °FFog.3 mph100%29.92 "Hg2 mi
7:25 AM63 °FFog.3 mph100%29.92 "Hg2 mi
6:55 AM61 °FFog.2 mph100%29.92 "Hg2 mi
6:25 AM61 °FFog.3 mph100%29.92 "Hg2 mi
5:55 AM59 °FFog.2 mph100%29.92 "Hg2 mi
5:25 AM57 °FFog.2 mph100%29.92 "Hg2 mi
5:02 AM57 °FFog.1 mph94%29.92 "Hg2 mi
4:55 AM57 °FFog.1 mph100%29.92 "Hg2 mi
4:25 AM57 °FFog.2 mph100%29.92 "Hg2 mi
3:55 AM57 °FFog.1 mph100%29.92 "Hg2 mi
3:25 AM57 °FFog.2 mph100%29.92 "Hg1 mi
2:55 AM57 °FFog.2 mph100%29.92 "Hg2 mi
2:25 AM57 °FFog.1 mph100%29.92 "Hg2 mi
1:55 AM59 °FFog.2 mph100%29.95 "Hg2 mi
1:25 AM61 °FFog.5 mph94%29.92 "Hg2 mi
1:03 AM59 °FFog.2 mph100%29.95 "Hg2 mi
12:58 AM59 °FFog.2 mph100%29.95 "Hg2 mi
12:25 AM61 °FFog.2 mph94%29.95 "Hg4 mi
12:03 AM61 °FFog.3 mph100%29.95 "Hg5 mi
11:55 PM
Jul 25
61 °FFog.3 mph94%29.95 "Hg4 mi
11:25 PM61 °FFog.3 mph100%29.95 "Hg5 mi
10:59 PM61 °FFog.2 mph94%29.95 "Hg4 mi
10:25 PM63 °FFog.2 mph94%29.95 "Hg1 mi
10:03 PM61 °FFog.1 mph100%29.95 "Hg1 mi
9:55 PM61 °FFog.1 mph100%29.95 "Hg2 mi
9:25 PM63 °FScattered clouds.1 mph94%29.92 "HgN/A
8:55 PM64 °FBroken clouds.3 mph88%29.92 "HgN/A
8:25 PM64 °FPassing clouds.3 mph88%29.92 "HgN/A
7:55 PM66 °FOvercast.6 mph83%29.95 "HgN/A
7:25 PM66 °FOvercast.6 mph83%29.92 "HgN/A
6:55 PM66 °FBroken clouds.7 mph88%29.92 "HgN/A
6:25 PM64 °FMore clouds than sun.9 mph88%29.95 "HgN/A
5:55 PM68 °FMostly cloudy.7 mph78%29.95 "HgN/A
5:25 PM68 °FBroken clouds.7 mph78%29.95 "HgN/A
4:55 PM66 °FOvercast.7 mph83%29.95 "HgN/A
4:25 PM64 °FMostly cloudy.9 mph88%29.95 "HgN/A
3:55 PM66 °FMore clouds than sun.9 mph83%29.95 "HgN/A
3:25 PM66 °FMostly cloudy.6 mph83%29.95 "HgN/A
2:59 PM66 °FCloudy.7 mph83%29.98 "HgN/A
2:25 PM64 °FOvercast.9 mph88%29.98 "HgN/A
1:55 PM66 °FMostly cloudy.9 mph83%29.98 "HgN/A
1:25 PM64 °FMostly cloudy.12 mph83%29.98 "HgN/A
12:57 PM64 °FBroken clouds.14 mph83%29.98 "HgN/A
12:25 PM66 °FPartly sunny.14 mph78%29.98 "HgN/A
12:04 PM68 °FPartly sunny.12 mph69%29.98 "HgN/A
11:59 AM70 °FCloudy.10 mph69%29.98 "HgN/A
11:25 AM68 °FMore clouds than sun.10 mph73%30.01 "HgN/A
11:00 AM68 °FMostly cloudy.9 mph73%30.01 "HgN/A
10:55 AM68 °FBroken clouds.12 mph73%30.01 "HgN/A
10:25 AM68 °FMore clouds than sun.8 mph73%29.98 "HgN/A
9:55 AM68 °FMostly cloudy.10 mph73%29.98 "HgN/A
9:25 AM66 °FOvercast.8 mph78%29.98 "HgN/A
Weather by CustomWeather, © 2014

See weather overviewHow to use our weather pages